www.pogodaiklimat.ru

Погода и климат >> Архив погоды >> Франция >> Эврё


ПОГОДА в Эврё

  • Прогноз погоды в Эврё
  • Монитор погоды в Эврё

АРХИВ ПОГОДЫ в Эврё

Время (UTC), дата Ветер
(напр.,м/с)
 
Видим.   Явления Облачность Т
(С)
Тd
(С)
f
(%)
Тe
(С)
Тes
(С)
Комфортность P
(гПа)
Po
(гПа)
Тmin
(С)
Tmax
(С)
R
(мм)
R24
(мм)
S
(см)
01 11.09 ЮЗ 1-1
{2}
29 км 10/10
[]
+11.0 +9.1 88 +11 +11 1023.7 1007.0
02 11.09 ЮЗ 1-1
{1}
30 км 10/10
[]
+10.8 +9.1 89 +10 +10 1023.6 1006.9
03 11.09 З 2-2
{2}
16 км 10/0
[]
+11.4 +10.0 91 +11 +11 1023.7 1007.0
04 11.09 З 1-2
{2}
14 км 10/10
[]
+11.8 +10.7 93 +12 +12 1023.7 1007.0
05 11.09 ЮЗ 1 12 км 10/10
[]
+11.8 +10.9 94 +12 +12 1023.8 1007.1
06 11.09 ЮЗ 1 15 км слаб. дождь 10/0
[]
+12.2 +11.1 93 +12 +12 1024.5 1007.8 +10.1 +18.4 0.0
07 11.09 З 2-3
{3}
28 км 10/10 2000 м
[]
+13.7 +11.7 88 +13 +13 1024.7 1008.1 0.0
08 11.09 З 2-3
{3}
45 км 10/10 2000 м
[]
+15.2 +11.2 77 +15 +15 1025.2 1008.7
09 11.09 З 3
{7}
60 км 8/8 1500 м
[]
+16.9 +11.0 68 +17 +18 1025.4 1009.0 0.0
10 11.09 ЮЗ 3 55 км 9/9 1500 м
[]
+18.7 +10.0 57 +20 +20 1025.3 1009.0
11 11.09 ЮЗ 3 19 км 9/9
[]
+20.3 +7.0 42 +22 +22 комфорт 1025.1 1008.9
12 11.09 З 3
{10}
55 км 9/9 1500 м
[]
+21.4 +6.5 38 +22 +23 комфорт 1025.1 1008.9
13 11.09 З 3 40 км 9/6 1000 м
[]
+22.0 +6.2 36 +23 +25 комфорт 1024.7 1008.6
14 11.09 З 3 50 км 10/8 1080 м
[]
+22.1 +9.6 45 +24 +24 комфорт 1024.7 1008.6
15 11.09 З 3
{9}
60 км 10/10 1000 м
[]
+22.4 +11.2 49 +25 +27 комфорт 1024.8 1008.7 0
16 11.09 З 2 50 км 10/8 1410 м
[]
+21.9 +11.6 52 +24 +24 комфорт 1025.1 1009.0
17 11.09 З 4 60 км 10/10 1050 м
[]
+21.0 +13.7 63 +24 +24 комфорт 1025.7 1009.5
18 11.09 З 3
{9}
60 км 10/10 1500 м
[]
+20.1 +14.0 68 +23 +23 комфорт 1025.8 1009.6 +12.2 +23.3
19 11.09 З 3 60 км н/о +18.8 +14.1 74 +20 +20 1026.4 1010.1
20 11.09 0 60 км 10/10 1020 м
[]
+18.4 +14.3 77 1027.0 1010.7
21 11.09 0 60 км 10/10 1000 м
[]
+18.5 +14.4 77 1027.1 1010.8
22 11.09 З 3 60 км 9/9 800 м
[]
+18.3 +14.4 78 +19 +19 1027.1 1010.8
23 11.09 З 3 60 км 9/9 540 м
[]
+18.1 +14.8 81 +19 +19 1027.7 1011.3
00 12.09 З 2-4
{4}
60 км 10/10 300 м
[]
+17.9 +15.0 83 +18 +18 1028.1 1011.7
01 12.09 ЮЗ 2 55 км 9/9 420 м
[]
+16.4 +14.6 89 +17 +17 1028.4 1011.9
02 12.09 ЮЗ 2-2
{3}
55 км 10/10 630 м
[]
+16.4 +14.8 90 +17 +17 1028.5 1012.0
03 12.09 З 2-3
{3}
60 км 10/10 300 м
[]
+17.3 +15.1 87 +18 +18 1028.3 1011.9
04 12.09 З 2-3
{3}
55 км 10/10 360 м
[]
+17.3 +15.1 87 +18 +18 1028.3 1011.9
05 12.09 0 60 км 10/10 330 м
[]
+17.5 +15.3 87 1028.7 1012.3
06 12.09 З 2
{5}
60 км 10/10 300 м
[]
+17.5 +15.3 87 +18 +18 1029.4 1013.0 +15.8 +20.1
07 12.09 З 2-3
{3}
60 км 10/10 330 м
[]
+18.1 +15.5 85 +19 +19 1030.0 1013.6
08 12.09 З 2 55 км 10/10 360 м
[]
+18.6 +15.7 83 +20 +20 1030.8 1014.4
09 12.09 З 2-3
{4}
55 км 10/10 300 м
[]
+19.1 +15.6 80 +21 +21 комфорт 1031.3 1014.9
10 12.09 З 2-3
{3}
60 км 10/10 480 м
[]
+20.1 +15.9 77 +24 +24 комфорт 1031.5 1015.2
11 12.09 З 2-3
{3}
55 км 10/10 600 м
[]
+21.1 +15.6 71 +24 +24 комфорт 1031.5 1015.2
12 12.09 З 2
{7}
50 км 10/10 600 м
[]
+22.5 +15.6 65 +26 +26 жарко 1031.2 1015.0
13 12.09 З 2 60 км 10/10 840 м
[]
+23.0 +15.6 63 +27 +27 душно 1031.0 1014.9
14 12.09 З 2 55 км 9/9 840 м
[]
+22.6 +15.7 65 +27 +27 душно 1031.2 1015.0
15 12.09 З 3-4
{4}
60 км 10/10 600 м
[]
+21.8 +15.6 68 +25 +25 комфорт 1031.1 1014.9
16 12.09 СЗ 2 60 км 10/10 720 м
[]
+21.5 +15.8 70 +25 +25 комфорт 1031.2 1015.0
17 12.09 СЗ 2 19 км 10/10 400 м
[]
+19.7 +16.9 84 +23 +23 комфорт 1031.8 1015.5 0.0
18 12.09 СЗ 2 55 км 10/10 700 м
[]
+18.7 +17.0 90 +21 +21 комфорт 1031.9 1015.5 +17.5 +23.7 0.0
19 12.09 0 45 км 10/10 300 м
[]
+18.4 +16.9 91 1032.2 1015.8
20 12.09 З 1 60 км 10/10 870 м
[]
+18.6 +16.7 89 +21 +21 комфорт 1032.3 1015.9
21 12.09 0 60 км н/о +17.7 +16.0 90 1032.5 1016.0
22 12.09 З 1 14 км н/о +16.2 +15.7 97 +17 +17 1032.6 1016.1
23 12.09 0 11 км н/о +15.3 +14.8 97 1032.7 1016.1
00 13.09 З 1 2700 м дымка н/о +14.2 +13.7 97 +14 +14 1032.7 1016.0
01 13.09 З 1-1
{1}
3600 м дымка ?/? +13.4 +13.1 98 +13 +13 1032.4 1015.7
02 13.09 З 1-1
{2}
19 км 9/9 660 м
[]
+14.3 +14.3 100 +15 +15 1032.4 1015.7
03 13.09 З 1-1
{2}
30 км 10/10 630 м
[]
+15.0 +14.7 98 +15 +15 1032.3 1015.7
04 13.09 З 1-1
{2}
40 км 10/10 330 м
[]
+15.1 +14.6 97 +16 +16 1032.5 1015.9
05 13.09 ЮЗ 1-1
{1}
19 км 10/10 330 м
[]
+15.6 +14.8 95 +16 +16 1032.8 1016.2
06 13.09 З 1 8000 м 10/10 200 м
[]
+15.6 +15.0 96 +16 +16 1033.3 1016.7 +13.0 +18.7
07 13.09 0 35 км 10/10 480 м
[]
+15.9 +14.9 94 1033.6 1017.0 0.2
08 13.09 З 1-1
{2}
4300 м дымка 10/10 630 м
[]
+17.2 +15.0 87 +19 +19 1033.8 1017.3
09 13.09 СЗ 1-1
{2}
17 км 10/10 300 м
[]
+17.3 +14.0 81 +18 +18 1034.2 1017.7 0.2
10 13.09 СЗ 1-1
{2}
35 км 10/10 630 м
[]
+19.1 +14.1 73 +22 +22 комфорт 1033.7 1017.3
11 13.09 С 1 55 км 10/10 700 м
[]
+20.1 +14.2 69 +23 +23 комфорт 1033.3 1017.0
12 13.09 СВ 2
{5}
55 км 8/8 600 м
[]
+21.2 +13.9 63 +24 +26 комфорт 1033.1 1016.8
13 13.09 С 2 19 км 8/8 870 м
[]
+21.8 +13.9 61 +25 +27 комфорт 1032.6 1016.4
14 13.09 СВ 2-3
{4}
55 км 9/9 960 м
[]
+21.8 +14.7 64 +25 +26 комфорт 1032.9 1016.7
15 13.09 С 2-3
{4}
55 км 10/10 1000 м
[]
+21.9 +14.8 64 +25 +25 комфорт 1032.4 1016.2
16 13.09 С 2 60 км 10/10 720 м
[]
+21.2 +15.5 70 +24 +24 комфорт 1032.4 1016.1
17 13.09 СВ 2 60 км 10/10 660 м
[]
+21.0 +15.3 70 +25 +25 комфорт 1032.2 1015.9
18 13.09 СВ 2
{5}
60 км 10/10 1000 м
[]
+20.4 +15.4 73 +24 +24 комфорт 1032.1 1015.8 +15.5 +22.9
19 13.09 СВ 1-2
{3}
60 км н/о +18.9 +14.8 77 +21 +21 комфорт 1032.4 1016.0
20 13.09 С 2-2
{2}
50 км н/о +16.4 +14.1 86 +17 +17 1032.7 1016.2
21 13.09 С 2-2
{2}
35 км н/о +16.2 +14.4 89 +17 +17 1033.0 1016.4
22 13.09 СВ 2-2
{3}
30 км н/о +15.7 +14.4 92 +16 +16 1033.0 1016.4
23 13.09 СВ 3-3
{3}
50 км 10/10 720 м
[]
+16.3 +13.6 84 +16 +16 1033.1 1016.5
00 14.09 СВ 2 55 км 8/8 800 м
[]
+15.5 +12.6 83 +15 +15 1033.0 1016.4
01 14.09 СВ 2-2
{3}
45 км н/о +14.4 +12.3 87 +14 +14 1032.7 1016.0
02 14.09 СВ 2-3
{3}
27 км н/о +13.7 +11.7 88 +13 +13 1032.2 1015.5
03 14.09 СВ 2-2
{3}
19 км н/о +12.4 +10.8 90 +12 +12 1032.2 1015.4
04 14.09 СВ 2-2
{2}
13 км н/о +12.0 +10.9 93 +11 +11 1032.2 1015.4
05 14.09 С 2-3
{3}
10 км н/о +12.3 +11.4 94 +11 +11 1032.4 1015.6
06 14.09 0 7000 м н/о +12.2 +11.4 95 1032.2 1015.4 +11.7 +20.4
07 14.09 СВ 2-3
{3}
10 км н/о +13.5 +12.1 91 +13 +13 1032.2 1015.5
08 14.09 СВ 2-3
{3}
15 км н/о +14.9 +12.2 84 +15 +15 1031.9 1015.3
09 14.09 СВ 2-3
{3}
17 км н/о +17.1 +13.0 77 +18 +18 1031.7 1015.2
10 14.09 СВ 2-3
{3}
29 км н/о +19.6 +13.3 67 +22 +22 комфорт 1031.2 1014.9
11 14.09 В 2-4
{4}
50 км н/о +22.0 +13.4 58 +25 +25 комфорт 1030.3 1014.1
12 14.09 СВ 2-4
{4}
40 км н/о +23.0 +13.2 54 +26 +26 жарко 1029.6 1013.5
13 14.09 СВ 2-4
{4}
45 км н/о +24.5 +12.4 47 +26 +26 жарко 1028.8 1012.8
14 14.09 СВ 2-3
{5}
60 км н/о +25.1 +12.0 44 +27 +27 жарко 1028.3 1012.3
15 14.09 В 2-4
{5}
60 км н/о +25.3 +11.1 41 +27 +27 жарко 1027.8 1011.8
16 14.09 СВ 2-3
{3}
50 км н/о +25.1 +11.6 43 +27 +27 жарко 1027.1 1011.1
17 14.09 СВ 2-3
{3}
50 км н/о +24.7 +11.3 43 +26 +26 жарко 1026.9 1010.9
18 14.09 СВ 2
{5}
40 км н/о +22.3 +11.4 50 +24 +24 комфорт 1027.2 1011.1 +12.1 +25.5
19 14.09 СВ 1-2
{2}
60 км н/о +19.8 +11.3 58 +22 +22 комфорт 1027.6 1011.3
20 14.09 СВ 1-1
{2}
55 км н/о +17.6 +10.5 63 +19 +19 1027.6 1011.2
21 14.09 СВ 1-2
{2}
55 км н/о +17.1 +10.5 65 +18 +18 1027.5 1011.1
22 14.09 СВ 1-2
{2}
55 км н/о +15.1 +9.5 69 +16 +16 1027.6 1011.0
23 14.09 С 1-1
{2}
55 км н/о +15.4 +9.7 69 +16 +16 1027.1 1010.6
00 15.09 СВ 1-1
{1}
55 км н/о +14.2 +9.6 74 +15 +15 1027.0 1010.4
01 15.09 С 1-1
{1}
50 км н/о +12.2 +9.6 84 +13 +13 1026.8 1010.1
02 15.09 С 1-1
{1}
40 км н/о +11.5 +10.1 91 +12 +12 1026.4 1009.7
03 15.09 СЗ 1-1
{1}
30 км н/о +10.7 +9.3 91 +11 +11 1026.3 1009.5
04 15.09 СЗ 1-1
{1}
19 км н/о +9.9 +9.1 95 +10 +10 1026.0 1009.2
05 15.09 З 1-1
{1}
19 км н/о +9.8 +8.9 94 +10 +10 1025.9 1009.1
06 15.09 З 1
{2}
16 км н/о +9.3 +8.4 94 +10 +10 1026.2 1009.3 +9.3 +22.2
07 15.09 З 1-1
{1}
26 км н/о +13.1 +10.8 86 +14 +14 1026.0 1009.4
08 15.09 СЗ 1-1
{1}
30 км н/о +16.6 +10.9 69 +17 +17 1026.0 1009.6
09 15.09 З 1-1
{1}
40 км н/о +20.8 +11.4 55 +24 +24 комфорт 1025.9 1009.7
10 15.09 Ю 1-1
{2}
45 км н/о +23.9 +11.2 45 +25 +25 комфорт 1025.4 1009.4
11 15.09 С 1-2
{2}
35 км н/о +24.5 +11.4 44 +26 +26 жарко 1025.1 1009.1
12 15.09 С 1-2
{2}
35 км н/о +25.6 +11.0 40 +27 +27 жарко 1024.6 1008.7
13 15.09 СВ 1-2
{3}
19 км н/о +26.3 +11.2 39 +27 +27 жарко 1023.9 1008.0
14 15.09 СВ 1-2
{3}
55 км н/о +26.5 +10.6 37 +27 +27 жарко 1023.2 1007.3
15 15.09 С 1-3
{3}
35 км н/о +27.2 +10.8 36 +28 +28 жарко 1022.4 1006.6
16 15.09 СВ 1-2
{2}
45 км н/о +26.9 +10.6 36 +28 +28 жарко 1022.1 1006.3
17 15.09 С 2-2
{3}
18 км н/о +26.0 +11.4 40 +27 +27 жарко 1022.0 1006.1
18 15.09 С 2
{5}
50 км н/о +23.0 +11.7 49 +25 +25 комфорт 1022.4 1006.4 +9.3 +27.3
19 15.09 С 1-2
{2}
50 км н/о +20.2 +12.2 60 +23 +23 комфорт 1022.9 1006.7
20 15.09 С 1-2
{2}
45 км н/о +18.3 +12.5 69 +20 +20 1023.2 1006.9
21 15.09 С 1-2
{2}
40 км н/о +16.3 +12.1 76 +17 +17 1023.6 1007.2
22 15.09 С 1-1
{2}
30 км н/о +15.8 +12.0 78 +17 +17 1023.6 1007.2
23 15.09 СЗ 1-1
{1}
30 км н/о +13.6 +10.8 83 +15 +15 1023.8 1007.2
00 16.09 СЗ 1-1
{1}
30 км н/о +12.6 +10.8 89 +13 +13 1023.4 1006.8
01 16.09 З 1-1
{1}
19 км н/о +12.1 +10.8 92 +12 +12 1023.4 1006.7
02 16.09 З 1-1
{2}
17 км н/о +11.3 +10.0 92 +11 +11 1023.2 1006.5
03 16.09 З 1-1
{2}
10 км н/о +11.2 +10.6 96 +11 +11 1022.7 1006.0
04 16.09 СЗ 1 8000 м н/о +9.9 +9.3 96 +9 +9 1022.5 1005.7
05 16.09 З 1 8000 м н/о +10.5 +9.9 96 +10 +10 1022.3 1005.6
06 16.09 З 1 9000 м н/о +10.3 +9.4 94 +10 +10 1022.6 1005.8 +9.9 +22.9
07 16.09 0 100 м туман ?/? +11.2 +11.0 99 1022.8 1006.1
08 16.09 СЗ 2 200 м туман ?/? +12.4 +12.2 99 +11 +11 1023.2 1006.6
09 16.09 СЗ 2-2
{2}
14 км 9/9 50 м
[]
+15.3 +13.5 89 +15 +16 1023.2 1006.7
10 16.09 СЗ 1-2
{3}
19 км н/о +19.3 +13.9 71 +22 +22 комфорт 1022.5 1006.3
11 16.09 СЗ 1-2
{2}
35 км н/о +22.5 +14.9 62 +26 +26 жарко 1022.1 1006.1
12 16.09 СЗ 1-2
{3}
18 км н/о +23.5 +14.2 56 +26 +26 жарко 1021.7 1005.7
13 16.09 СЗ 2-4
{4}
19 км н/о +25.0 +14.2 51 +27 +27 жарко 1021.2 1005.3
14 16.09 СЗ 2-4
{4}
9000 м н/о +25.2 +13.7 49 +27 +27 жарко 1020.6 1004.7
15 16.09 СЗ 2-4
{4}
12 км н/о +24.6 +14.7 54 +27 +27 жарко 1020.6 1004.7
16 16.09 С 3-4
{4}
19 км н/о +22.7 +14.3 59 +26 +26 жарко 1020.7 1004.7
17 16.09 СЗ 2-4
{4}
25 км н/о +20.7 +15.0 70 +24 +24 комфорт 1020.8 1004.7
18 16.09 СЗ 2
{7}
40 км н/о +18.7 +14.8 78 +20 +20 1021.1 1004.9 +10.3 +26.1
19 16.09 СЗ 1-3
{3}
45 км н/о +17.7 +14.6 82 +19 +19 1021.7 1005.4
20 16.09 СЗ 1 45 км н/о +16.6 +14.2 86 +17 +17 1022.0 1005.6
21 16.09 0 35 км н/о +15.4 +13.8 90 1022.3 1005.9
22 16.09 СЗ 1-2
{2}
18 км н/о +14.7 +13.6 93 +15 +15 1022.4 1005.9
23 16.09 0 12 км 10/10 180 м
[]
+15.4 +14.4 94 1022.5 1006.1
00 17.09 С 2 15 км 10/10 100 м
[]
+15.6 +14.3 92 +16 +16 1022.3 1005.9
01 17.09 С 1-1
{3}
17 км 10/10 240 м
[]
+15.6 +14.1 91 +17 +17 1022.0 1005.6
02 17.09 З 1-1
{1}
17 км 10/10 210 м
[]
+15.5 +14.2 92 +17 +17 1021.9 1005.5
03 17.09 З 1-1
{1}
15 км 10/10 200 м
[]
+15.8 +14.3 91 +17 +17 1021.7 1005.3
04 17.09 СЗ 1-1
{1}
1900 м дымка 10/10 90 м
[]
+15.3 +14.8 97 +16 +16 1021.8 1005.4 0.0
05 17.09 С 1 2700 м дымка 10/10 120 м
[]
+15.4 +15.1 98 +17 +17 1021.9 1005.5 0.0
06 17.09 СВ 1 5000 м 10/10 100 м
[]
+16.0 +15.2 95 +17 +17 1022.2 1005.8 +14.7 +18.7 0.0
07 17.09 0 10 км 10/10 210 м
[]
+16.8 +15.0 89 1022.3 1006.0
08 17.09 СВ 2 13 км 10/10 300 м
[]
+17.2 +14.3 83 +18 +18 1022.8 1006.5
09 17.09 СВ 2
{6}
19 км 10/10 300 м
[]
+19.0 +13.6 71 +21 +21 комфорт 1023.0 1006.8
10 17.09 С 3 30 км 10/10 750 м
[]
+19.3 +12.1 63 +21 +21 комфорт 1023.1 1006.9
11 17.09 С 2 55 км 10/6 870 м
[]
+20.6 +11.8 57 +23 +25 комфорт 1022.9 1006.7
12 17.09 С 2
{9}
19 км н/о +20.1 +11.6 58 +22 +22 комфорт 1022.7 1006.5
13 17.09 С 2 50 км н/о +20.9 +10.4 51 +24 +24 комфорт 1022.3 1006.2
14 17.09 С 2-4
{4}
60 км н/о +21.9 +10.4 48 +24 +24 комфорт 1022.0 1005.9
15 17.09 С 2-4
{4}
5000 м н/о +22.2 +10.0 46 +24 +24 комфорт 1021.8 1005.7
16 17.09 С 2-4
{4}
60 км н/о +21.7 +9.9 47 +23 +23 комфорт 1021.8 1005.7
17 17.09 С 3-4
{4}
45 км н/о +20.9 +10.1 50 +23 +23 комфорт 1021.7 1005.6
18 17.09 С 2
{8}
35 км н/о +18.0 +11.5 66 +19 +19 1022.2 1005.9 +16.0 +23.3
19 17.09 С 3 35 км н/о +16.5 +11.0 70 +16 +16 1022.9 1006.5
20 17.09 СВ 4-5
{5}
40 км н/о +15.5 +9.6 68 +15 +15 1023.8 1007.3
21 17.09 СВ 3-5
{5}
45 км н/о +14.2 +8.2 67 +13 +13 1024.3 1007.7
22 17.09 СВ 3 50 км н/о +13.4 +7.6 68 +12 +12 1024.8 1008.2
23 17.09 СВ 3-4
{5}
50 км н/о +12.5 +7.6 72 +11 +11 1025.1 1008.4
00 18.09 СВ 3-4
{5}
45 км н/о +11.7 +7.6 76 +10 +10 1025.5 1008.8

 

Местоположение метеостанции Эврё (Франция): широта 49.02 долгота 1.23 высота над уровнем моря 141 м.

В архиве по умолчанию представлена погода в Эврё за последнюю неделю. Архивные данные за месяц целиком и за предыдущие месяцы, начиная с января 2011 года, Вы можете получить, выбрав интересующий диапазон дат из раскрывающегося списка и нажав кнопку "Ввод!".


*Определитесь, кто Вы:
робот инопланетянин человек

Внимание! Время в таблицах - всемирное. Для получения местного времени необходимо прибавить поправку, которая равна 1 ч.

Смотрите также архив погоды в соседних городах и на ближайших метеорологических станциях:

Погода в Тусю-ле-Нобле (Франция) (29 км)
Погода в Руанском (Франция) (40 км)
Погода в Кормее (Франция) (59 км)
Погода в Трапе (Франция) (63 км)
Погода в Шартре (Франция) (64 км)
Погода в Велизи-Вилакубле (Франция) (76 км)
Погода в Бове (Франция) (82 км)
Погода в Париже (Франция) (83 км)
Погода в Довиле (Франция) (86 км)
Погода в Ле-Бурже (Франция) (88 км)

Пояснения к столбцам:

Ветер - указаны скорость ветра в м/с - средняя за 10 мин, порывы в срок и между сроками (в фигурных скобках) и направление, откуда дует ветер: С - северный, СВ - северо-восточный, В - восточный, ЮВ - юго-восточный, Ю - южный, ЮЗ - юго-западный, З - западный, СЗ - северо-западный.
Видимость - горизонтальная дальность видимости в метрах или километрах. При видимости от 1 до 10 км при отсутствии осадков обычно наблюдается дымка, при ухудшении видимости до 1 км и менее - туман. В сухую погоду видимость может ухудшаться дымом, пылью или мглою.
Явления - указаны атмосферные явления, наблюдавшиеся в срок или в последний час перед сроком; фигурными скобками обозначены явления, наблюдавшиеся между сроками (за 1-3 часа до срока); квадратными скобками обозначены град или гололедные отложения с указанием их диаметра в мм.
Облачность - указаны через наклонную черту общая и нижняя облачность в баллах и высота нижней границы облаков в метрах; квадратными скобками обозначены формы облаков: Ci - перистые, Cs - перисто-слоистые, Cc - перисто-кучевые, Ac - высококучевые, As - высокослоистые, Sc - слоисто-кучевые, Ns - слоисто-дождевые, Cu - кучевые, Cb - кучево-дождевые. Подробнее классификацию облаков см. в Атласе облаков (PDF).
T - Температура воздуха - температура, измеренная на высоте 2 м над землей.
Td - Температура точки росы - температура, при понижении до которой содержащийся в воздухе водяной пар достигнет насыщения.
f - Относительная влажность воздуха - влажноcть воздуха, измеренная на высоте 2 м над землей.
Te - Эффективная температура - температура, которую ощущает одетый по сезону человек в тени. Характеристика душности погоды. При расчете учитывается влияние влажности воздуха и скорости ветра на теплоощущения человека.
Tes - Эффективная температура на солнце - температура, которую ощущает человек, с поправкой на солнечный нагрев. Характеристика знойности погоды. Зависит от высоты солнца над горизонтом, облачности и скорости ветра. Ночью, в пасмурную погоду, а также при ветре 12 м/с и более поправка равна нулю.
P - Атмосферное давление - приведенное к уровню моря атмосферное давление.
Po - Атмосферное давление - измеренное на уровне метеостанции атмосферное давление.
Tmin - Минимальная температура - минимум температуры воздуха на высоте 2 м над землей.
Tmax - Максимальная температура - максимум температуры воздуха на высоте 2 м над землей.
R - Количество осадков - Количество выпавших осадков за период времени, мм. При наведении курсора мыши на число - период времени, за который выпало указанное количество осадков.
R24 - Количество осадков - Количество выпавших осадков за 24 часа, мм.
S - Снежный покров - Высота снежного покрова, см. При наведении курсора мыши на число - состояние снежного покрова и степень покрытия местности в баллах.